CHH2551 ZGSZ-ZJSY

Flight info

Callsign CHH2551
Flight time 1h 9m
Altitude 27600
Route TOMUD R200 BIGRO G221 UPRIS
Aircraft B738

Departure

Time 2026-04-28 10:45
Airport Shenzhen Bao'an International Airport (ZGSZ)

Arrival

Time 2026-04-28 11:54
Airport Sanya Phoenix International Airport (ZJSY)
Time Latitude Longitude Altitude Speed Heading
2026-04-28 10:11 22.63030 113.80961 2 ft 0 kts 173°
2026-04-28 10:32 22.63033 113.80961 3 ft 2 kts 174°
2026-04-28 10:33 22.63048 113.80959 3 ft 2 kts 173°
2026-04-28 10:33 22.63058 113.80958 3 ft 1 kts 174°
2026-04-28 10:33 22.63072 113.80954 3 ft 2 kts 150°
2026-04-28 10:33 22.63084 113.80944 3 ft 2 kts 132°
2026-04-28 10:34 22.63092 113.80931 3 ft 2 kts 111°
2026-04-28 10:34 22.63095 113.80915 3 ft 2 kts 90°
2026-04-28 10:34 22.63095 113.80906 3 ft 1 kts 80°
2026-04-28 10:34 22.63094 113.80904 3 ft 0 kts 83°
2026-04-28 10:36 22.63094 113.80905 3 ft 1 kts 83°
2026-04-28 10:36 22.63096 113.80921 3 ft 4 kts 83°
2026-04-28 10:36 22.63101 113.80963 3 ft 7 kts 84°
2026-04-28 10:37 22.63107 113.81029 3 ft 11 kts 84°
2026-04-28 10:37 22.63119 113.81123 3 ft 14 kts 83°
2026-04-28 10:37 22.63146 113.81234 3 ft 15 kts 50°
2026-04-28 10:37 22.63234 113.81225 3 ft 13 kts 333°
2026-04-28 10:38 22.63323 113.81176 3 ft 16 kts 333°
2026-04-28 10:38 22.63433 113.81115 3 ft 20 kts 333°
2026-04-28 10:38 22.63573 113.81039 3 ft 24 kts 333°
2026-04-28 10:38 22.63736 113.80949 3 ft 28 kts 335°
2026-04-28 10:39 22.63918 113.80850 3 ft 31 kts 334°
2026-04-28 10:39 22.64112 113.80743 3 ft 32 kts 332°
2026-04-28 10:39 22.64311 113.80632 3 ft 32 kts 334°
2026-04-28 10:39 22.64506 113.80527 3 ft 31 kts 333°
2026-04-28 10:40 22.64695 113.80423 3 ft 30 kts 333°
2026-04-28 10:40 22.64881 113.80321 3 ft 29 kts 332°
2026-04-28 10:40 22.64943 113.80253 3 ft 16 kts 262°
2026-04-28 10:40 22.64878 113.80109 2 ft 18 kts 244°
2026-04-28 10:41 22.64816 113.79979 2 ft 21 kts 241°
2026-04-28 10:41 22.64744 113.79827 2 ft 24 kts 244°
2026-04-28 10:41 22.64663 113.79655 2 ft 26 kts 244°
2026-04-28 10:41 22.64581 113.79481 2 ft 26 kts 243°
2026-04-28 10:42 22.64501 113.79311 2 ft 22 kts 244°
2026-04-28 10:42 22.64506 113.79221 2 ft 10 kts 326°
2026-04-28 10:42 22.64576 113.79180 2 ft 12 kts 334°
2026-04-28 10:42 22.64664 113.79132 2 ft 16 kts 334°
2026-04-28 10:43 22.64777 113.79069 2 ft 20 kts 333°
2026-04-28 10:43 22.64913 113.78995 2 ft 24 kts 333°
2026-04-28 10:43 22.65070 113.78908 2 ft 27 kts 333°
2026-04-28 10:43 22.65248 113.78810 2 ft 29 kts 333°
2026-04-28 10:44 22.65325 113.78719 2 ft 14 kts 249°
2026-04-28 10:44 22.65280 113.78630 2 ft 13 kts 238°
2026-04-28 10:44 22.65205 113.78616 2 ft 12 kts 152°
2026-04-28 10:44 22.65106 113.78671 2 ft 35 kts 154°
2026-04-28 10:45 22.64692 113.78897 2 ft 96 kts 154°
2026-04-28 10:45 22.63932 113.79314 2 ft 146 kts 153°
2026-04-28 10:45 22.62965 113.79844 377 ft 157 kts 155°
2026-04-28 10:45 22.61942 113.80232 961 ft 159 kts 172°
2026-04-28 10:46 22.60843 113.80186 1493 ft 165 kts 192°
2026-04-28 10:46 22.59740 113.79754 2005 ft 173 kts 199°
2026-04-28 10:46 22.58594 113.79276 2493 ft 184 kts 198°
2026-04-28 10:46 22.57319 113.78802 2886 ft 202 kts 197°
2026-04-28 10:47 22.55927 113.78324 3349 ft 220 kts 197°
2026-04-28 10:47 22.54425 113.77806 3944 ft 231 kts 198°
2026-04-28 10:47 22.52891 113.77267 4649 ft 236 kts 198°
2026-04-28 10:47 22.51333 113.76716 5424 ft 238 kts 199°
2026-04-28 10:48 22.49810 113.76020 6145 ft 242 kts 212°
2026-04-28 10:48 22.48607 113.74773 6858 ft 246 kts 237°
2026-04-28 10:48 22.47962 113.73091 7637 ft 247 kts 255°
2026-04-28 10:48 22.47706 113.71261 8356 ft 250 kts 263°
2026-04-28 10:49 22.47575 113.69384 9082 ft 252 kts 264°
2026-04-28 10:49 22.47461 113.67500 9799 ft 254 kts 265°
2026-04-28 10:49 22.47336 113.65605 10467 ft 257 kts 264°
2026-04-28 10:49 22.47199 113.63685 11165 ft 259 kts 264°
2026-04-28 10:50 22.47057 113.61752 11846 ft 262 kts 264°
2026-04-28 10:50 22.46919 113.60447 12306 ft 263 kts 259°
2026-04-28 10:50 22.45988 113.58052 13128 ft 270 kts 232°
2026-04-28 10:50 22.44588 113.56609 13519 ft 285 kts 222°
2026-04-28 10:51 22.43012 113.55221 13896 ft 300 kts 221°
2026-04-28 10:51 22.41365 113.53756 14244 ft 315 kts 222°
2026-04-28 10:51 22.39638 113.52220 14587 ft 331 kts 220°
2026-04-28 10:51 22.37685 113.50809 14963 ft 346 kts 210°
2026-04-28 10:52 22.35424 113.49833 15527 ft 355 kts 200°
2026-04-28 10:52 22.33026 113.49157 16146 ft 361 kts 196°
2026-04-28 10:52 22.30550 113.48575 16804 ft 364 kts 195°
2026-04-28 10:52 22.28060 113.48014 17408 ft 367 kts 195°
2026-04-28 10:53 22.25582 113.47325 17940 ft 370 kts 203°
2026-04-28 10:53 22.23338 113.46017 18471 ft 368 kts 221°
2026-04-28 10:53 22.21590 113.44049 19108 ft 365 kts 236°
2026-04-28 10:53 22.20303 113.41713 19675 ft 366 kts 246°
2026-04-28 10:54 22.19278 113.39206 20203 ft 369 kts 249°
2026-04-28 10:54 22.18313 113.36615 20693 ft 374 kts 250°
2026-04-28 10:54 22.17369 113.34001 21234 ft 376 kts 250°
2026-04-28 10:54 22.16743 113.32260 21558 ft 379 kts 250°
2026-04-28 10:55 22.15463 113.28718 22248 ft 382 kts 250°
2026-04-28 10:55 22.14818 113.26948 22588 ft 384 kts 250°
2026-04-28 10:55 22.13497 113.23363 23274 ft 388 kts 249°
2026-04-28 10:55 22.12798 113.21567 23628 ft 389 kts 248°
2026-04-28 10:56 22.11337 113.18010 24313 ft 392 kts 247°
2026-04-28 10:56 22.10212 113.15338 24817 ft 394 kts 247°
2026-04-28 10:56 22.09079 113.12661 25338 ft 395 kts 247°
2026-04-28 10:56 22.07940 113.09967 25828 ft 397 kts 248°
2026-04-28 10:57 22.06801 113.07262 26264 ft 400 kts 248°
2026-04-28 10:57 22.05656 113.04534 26695 ft 403 kts 248°
2026-04-28 10:57 22.04506 113.01786 27145 ft 405 kts 248°
2026-04-28 10:57 22.03351 112.99013 27412 ft 406 kts 248°
2026-04-28 10:58 22.02235 112.96241 27423 ft 402 kts 249°
2026-04-28 10:58 22.01160 112.93490 27426 ft 398 kts 249°
2026-04-28 10:58 22.00101 112.90744 27430 ft 399 kts 250°
2026-04-28 10:58 21.99041 112.87990 27434 ft 401 kts 249°
2026-04-28 10:59 21.97977 112.85228 27432 ft 401 kts 249°
2026-04-28 10:59 21.96909 112.82468 27431 ft 400 kts 249°
2026-04-28 10:59 21.96189 112.80624 27433 ft 399 kts 249°
2026-04-28 10:59 21.94734 112.76968 27430 ft 399 kts 249°
2026-04-28 11:00 21.93630 112.74233 27433 ft 400 kts 249°
2026-04-28 11:00 21.92894 112.72415 27435 ft 400 kts 249°
2026-04-28 11:00 21.91417 112.68771 27430 ft 399 kts 249°
2026-04-28 11:00 21.90313 112.66048 27426 ft 398 kts 248°
2026-04-28 11:01 21.89244 112.63408 27425 ft 398 kts 248°
2026-04-28 11:01 21.88136 112.60670 27425 ft 398 kts 249°
2026-04-28 11:01 21.87034 112.57948 27423 ft 398 kts 249°
2026-04-28 11:01 21.85934 112.55232 27423 ft 396 kts 249°
2026-04-28 11:02 21.84844 112.52525 27425 ft 396 kts 249°
2026-04-28 11:02 21.83764 112.49813 27423 ft 395 kts 249°
2026-04-28 11:02 21.82690 112.47098 27421 ft 396 kts 249°
2026-04-28 11:02 21.81971 112.45280 27419 ft 395 kts 249°
2026-04-28 11:03 21.80538 112.41657 27415 ft 395 kts 249°
2026-04-28 11:03 21.79465 112.38945 27410 ft 396 kts 249°
2026-04-28 11:03 21.78393 112.36242 27411 ft 395 kts 249°
2026-04-28 11:03 21.77317 112.33533 27409 ft 395 kts 248°
2026-04-28 11:04 21.76237 112.30815 27410 ft 395 kts 248°
2026-04-28 11:04 21.75163 112.28117 27411 ft 393 kts 248°
2026-04-28 11:04 21.74442 112.26308 27412 ft 394 kts 248°
2026-04-28 11:04 21.73004 112.22698 27412 ft 395 kts 249°
2026-04-28 11:05 21.71924 112.19992 27409 ft 395 kts 249°
2026-04-28 11:05 21.71208 112.18198 27409 ft 394 kts 248°
2026-04-28 11:05 21.69774 112.14605 27407 ft 393 kts 248°
2026-04-28 11:05 21.68700 112.11917 27407 ft 393 kts 248°
2026-04-28 11:06 21.67978 112.10110 27407 ft 394 kts 248°
2026-04-28 11:06 21.66547 112.06530 27405 ft 394 kts 248°
2026-04-28 11:06 21.65824 112.04725 27404 ft 394 kts 248°
2026-04-28 11:06 21.64383 112.01125 27405 ft 393 kts 248°
2026-04-28 11:07 21.63307 111.98438 27403 ft 393 kts 248°
2026-04-28 11:07 21.62230 111.95751 27402 ft 394 kts 248°
2026-04-28 11:07 21.61153 111.93064 27399 ft 392 kts 248°
2026-04-28 11:07 21.60075 111.90379 27396 ft 392 kts 248°
2026-04-28 11:08 21.59353 111.88580 27397 ft 393 kts 248°
2026-04-28 11:08 21.57856 111.85007 27394 ft 394 kts 246°
2026-04-28 11:08 21.56537 111.82439 27391 ft 394 kts 240°
2026-04-28 11:08 21.54963 111.80037 27392 ft 396 kts 235°
2026-04-28 11:09 21.53236 111.77736 27389 ft 398 kts 233°
2026-04-28 11:09 21.51445 111.75488 27391 ft 398 kts 232°
2026-04-28 11:09 21.49632 111.73256 27387 ft 398 kts 232°
2026-04-28 11:09 21.47816 111.71024 27388 ft 397 kts 232°
2026-04-28 11:10 21.45998 111.68779 27389 ft 397 kts 232°
2026-04-28 11:10 21.44193 111.66540 27388 ft 397 kts 232°
2026-04-28 11:10 21.42397 111.64304 27390 ft 396 kts 232°
2026-04-28 11:10 21.40605 111.62066 27390 ft 397 kts 232°
2026-04-28 11:11 21.38811 111.59820 27388 ft 398 kts 233°
2026-04-28 11:11 21.37018 111.57573 27385 ft 397 kts 233°
2026-04-28 11:11 21.35231 111.55332 27384 ft 396 kts 232°
2026-04-28 11:11 21.33431 111.53077 27381 ft 396 kts 232°
2026-04-28 11:12 21.32245 111.51590 27380 ft 396 kts 233°
2026-04-28 11:12 21.29855 111.48594 27377 ft 397 kts 232°
2026-04-28 11:12 21.28067 111.46353 27373 ft 396 kts 233°
2026-04-28 11:12 21.26284 111.44121 27374 ft 395 kts 232°
2026-04-28 11:13 21.24502 111.41890 27377 ft 396 kts 233°
2026-04-28 11:13 21.23303 111.40389 27374 ft 396 kts 232°
2026-04-28 11:13 21.20920 111.37410 27369 ft 394 kts 233°
2026-04-28 11:13 21.19135 111.35179 27367 ft 395 kts 233°
2026-04-28 11:14 21.17949 111.33696 27367 ft 396 kts 232°
2026-04-28 11:14 21.15554 111.30702 27367 ft 396 kts 232°
2026-04-28 11:14 21.13768 111.28472 27369 ft 395 kts 232°
2026-04-28 11:14 21.11986 111.26249 27366 ft 394 kts 232°
2026-04-28 11:15 21.10204 111.24026 27363 ft 395 kts 232°
2026-04-28 11:15 21.08409 111.21785 27364 ft 395 kts 232°
2026-04-28 11:15 21.06622 111.19557 27365 ft 395 kts 232°
2026-04-28 11:15 21.04839 111.17334 27363 ft 394 kts 232°
2026-04-28 11:16 21.03057 111.15116 27361 ft 393 kts 232°
2026-04-28 11:16 21.01277 111.12900 27361 ft 394 kts 232°
2026-04-28 11:16 20.99498 111.10686 27367 ft 393 kts 232°
2026-04-28 11:16 20.97719 111.08472 27361 ft 394 kts 232°
2026-04-28 11:17 20.95931 111.06247 27361 ft 393 kts 232°
2026-04-28 11:17 20.94154 111.04034 27360 ft 393 kts 232°
2026-04-28 11:17 20.92382 111.01817 27362 ft 393 kts 233°
2026-04-28 11:17 20.90612 110.99598 27358 ft 393 kts 233°
2026-04-28 11:18 20.89048 110.97636 27359 ft 393 kts 233°
2026-04-28 11:18 20.87284 110.95423 27359 ft 392 kts 233°
2026-04-28 11:18 20.85519 110.93210 27357 ft 393 kts 233°
2026-04-28 11:18 20.83736 110.90977 27358 ft 394 kts 233°
2026-04-28 11:19 20.81961 110.88754 27357 ft 394 kts 233°
2026-04-28 11:19 20.80186 110.86535 27362 ft 394 kts 232°
2026-04-28 11:19 20.78415 110.84321 27362 ft 392 kts 233°
2026-04-28 11:19 20.76647 110.82113 27367 ft 393 kts 233°
2026-04-28 11:20 20.75454 110.80623 27371 ft 394 kts 233°
2026-04-28 11:20 20.73098 110.77682 27373 ft 392 kts 232°
2026-04-28 11:20 20.71318 110.75461 27371 ft 393 kts 233°
2026-04-28 11:20 20.69544 110.73247 27374 ft 393 kts 233°
2026-04-28 11:21 20.67772 110.71038 27371 ft 393 kts 233°
2026-04-28 11:21 20.65998 110.68827 27369 ft 393 kts 233°
2026-04-28 11:21 20.64224 110.66618 27366 ft 392 kts 233°
2026-04-28 11:21 20.62453 110.64412 27365 ft 392 kts 233°
2026-04-28 11:22 20.60686 110.62212 27365 ft 393 kts 233°
2026-04-28 11:22 20.58895 110.59982 27365 ft 394 kts 233°
2026-04-28 11:22 20.57712 110.58510 27367 ft 394 kts 233°
2026-04-28 11:22 20.55935 110.56301 27367 ft 393 kts 233°
2026-04-28 11:23 20.53562 110.53353 27370 ft 394 kts 232°
2026-04-28 11:23 20.51759 110.51176 27366 ft 393 kts 231°
2026-04-28 11:23 20.49803 110.49130 27364 ft 396 kts 225°
2026-04-28 11:23 20.47651 110.47292 27368 ft 399 kts 221°
2026-04-28 11:24 20.45374 110.45558 27368 ft 400 kts 219°
2026-04-28 11:24 20.43074 110.43893 27362 ft 401 kts 218°
2026-04-28 11:24 20.40764 110.42247 27362 ft 400 kts 218°
2026-04-28 11:24 20.38458 110.40603 27361 ft 401 kts 218°
2026-04-28 11:25 20.36146 110.38946 27357 ft 401 kts 219°
2026-04-28 11:25 20.33842 110.37284 27357 ft 401 kts 219°
2026-04-28 11:25 20.31543 110.35618 27354 ft 399 kts 219°
2026-04-28 11:25 20.29230 110.33935 27356 ft 402 kts 219°
2026-04-28 11:26 20.26928 110.32256 27353 ft 402 kts 219°
2026-04-28 11:26 20.24634 110.30582 27347 ft 400 kts 219°
2026-04-28 11:26 20.23106 110.29467 27354 ft 401 kts 219°
2026-04-28 11:26 20.20031 110.27220 27356 ft 403 kts 218°
2026-04-28 11:27 20.17730 110.25541 27357 ft 401 kts 219°
2026-04-28 11:27 20.15427 110.23860 27352 ft 399 kts 219°
2026-04-28 11:27 20.13140 110.22192 27360 ft 400 kts 219°
2026-04-28 11:27 20.10847 110.20518 27359 ft 402 kts 219°
2026-04-28 11:28 20.08552 110.18843 27357 ft 401 kts 219°
2026-04-28 11:28 20.06263 110.17175 27357 ft 399 kts 219°
2026-04-28 11:28 20.03975 110.15511 27360 ft 399 kts 218°
2026-04-28 11:28 20.01632 110.13911 27358 ft 403 kts 215°
2026-04-28 11:29 19.99167 110.12491 27369 ft 404 kts 212°
2026-04-28 11:29 19.97465 110.11610 27367 ft 406 kts 210°
2026-04-28 11:29 19.94029 110.09941 27362 ft 406 kts 209°
2026-04-28 11:29 19.91448 110.08723 27362 ft 407 kts 209°
2026-04-28 11:30 19.89731 110.07916 27355 ft 405 kts 209°
2026-04-28 11:30 19.83735 110.05079 27363 ft 405 kts 210°
2026-04-28 11:30 19.81166 110.03850 27375 ft 407 kts 209°
2026-04-28 11:31 19.78571 110.02606 27379 ft 407 kts 210°
2026-04-28 11:31 19.75993 110.01367 27382 ft 408 kts 209°
2026-04-28 11:31 19.73419 110.00129 27382 ft 406 kts 210°
2026-04-28 11:31 19.70843 109.98890 27384 ft 407 kts 210°
2026-04-28 11:32 19.68266 109.97649 27390 ft 408 kts 210°
2026-04-28 11:32 19.66537 109.96818 27387 ft 406 kts 210°
2026-04-28 11:32 19.63116 109.95172 27394 ft 408 kts 210°
2026-04-28 11:32 19.60514 109.93919 27399 ft 409 kts 210°
2026-04-28 11:33 19.57927 109.92675 27398 ft 408 kts 209°
2026-04-28 11:33 19.55347 109.91436 27401 ft 408 kts 210°
2026-04-28 11:33 19.53631 109.90611 27407 ft 408 kts 210°
2026-04-28 11:33 19.50184 109.88955 27400 ft 408 kts 210°
2026-04-28 11:34 19.47605 109.87716 27396 ft 406 kts 210°
2026-04-28 11:34 19.45035 109.86483 27402 ft 407 kts 210°
2026-04-28 11:34 19.43302 109.85650 27404 ft 409 kts 210°
2026-04-28 11:34 19.40724 109.84413 27391 ft 404 kts 210°
2026-04-28 11:35 19.38207 109.83212 27313 ft 391 kts 210°
2026-04-28 11:35 19.35756 109.82047 27038 ft 385 kts 210°
2026-04-28 11:35 19.32452 109.80471 26471 ft 396 kts 209°
2026-04-28 11:35 19.29950 109.79280 25965 ft 394 kts 209°
2026-04-28 11:36 19.27471 109.78107 25467 ft 390 kts 209°
2026-04-28 11:36 19.24995 109.76937 24963 ft 385 kts 208°
2026-04-28 11:36 19.22569 109.75782 24471 ft 382 kts 209°
2026-04-28 11:36 19.20171 109.74630 23985 ft 377 kts 209°
2026-04-28 11:37 19.17801 109.73485 23504 ft 374 kts 208°
2026-04-28 11:37 19.15452 109.72350 23027 ft 370 kts 208°
2026-04-28 11:37 19.13129 109.71227 22553 ft 366 kts 208°
2026-04-28 11:37 19.10825 109.70115 22089 ft 363 kts 208°
2026-04-28 11:38 19.08530 109.69007 21625 ft 360 kts 208°
2026-04-28 11:38 19.06267 109.67916 21162 ft 357 kts 208°
2026-04-28 11:38 19.04023 109.66836 20699 ft 354 kts 208°
2026-04-28 11:38 19.01787 109.65758 20235 ft 355 kts 208°
2026-04-28 11:39 18.99538 109.64674 19762 ft 358 kts 208°
2026-04-28 11:39 18.97278 109.63585 19270 ft 356 kts 208°
2026-04-28 11:39 18.95035 109.62507 18786 ft 353 kts 208°
2026-04-28 11:39 18.92798 109.61432 18286 ft 350 kts 207°
2026-04-28 11:40 18.91333 109.60727 17966 ft 348 kts 208°
2026-04-28 11:40 18.88412 109.59323 17319 ft 344 kts 207°
2026-04-28 11:40 18.86240 109.58279 16840 ft 342 kts 207°
2026-04-28 11:40 18.84090 109.57246 16358 ft 339 kts 207°
2026-04-28 11:41 18.81952 109.56219 15885 ft 337 kts 207°
2026-04-28 11:41 18.79835 109.55203 15416 ft 334 kts 207°
2026-04-28 11:41 18.77719 109.54186 14944 ft 332 kts 207°
2026-04-28 11:41 18.75633 109.53183 14469 ft 329 kts 207°
2026-04-28 11:42 18.73559 109.52184 13999 ft 327 kts 207°
2026-04-28 11:42 18.71504 109.51195 13543 ft 324 kts 206°
2026-04-28 11:42 18.69465 109.50214 13095 ft 321 kts 206°
2026-04-28 11:42 18.67443 109.49244 12640 ft 319 kts 206°
2026-04-28 11:43 18.65434 109.48281 12192 ft 317 kts 206°
2026-04-28 11:43 18.63420 109.47316 11744 ft 315 kts 206°
2026-04-28 11:43 18.61437 109.46365 11300 ft 313 kts 206°
2026-04-28 11:43 18.59466 109.45419 10855 ft 311 kts 206°
2026-04-28 11:44 18.58161 109.44794 10562 ft 310 kts 206°
2026-04-28 11:44 18.56216 109.43862 10225 ft 304 kts 206°
2026-04-28 11:44 18.53708 109.42664 10054 ft 288 kts 206°
2026-04-28 11:44 18.52502 109.42088 9988 ft 279 kts 206°
2026-04-28 11:45 18.50181 109.40975 9641 ft 272 kts 207°
2026-04-28 11:45 18.49078 109.40352 9377 ft 271 kts 215°
2026-04-28 11:45 18.47276 109.38562 8909 ft 266 kts 232°
2026-04-28 11:45 18.46154 109.37023 8559 ft 265 kts 234°
2026-04-28 11:46 18.45050 109.35488 8209 ft 263 kts 233°
2026-04-28 11:46 18.43930 109.33979 7862 ft 262 kts 232°
2026-04-28 11:46 18.42800 109.32495 7518 ft 260 kts 232°
2026-04-28 11:46 18.41654 109.31012 7173 ft 259 kts 232°
2026-04-28 11:47 18.40518 109.29552 6828 ft 258 kts 232°
2026-04-28 11:47 18.39395 109.28097 6490 ft 256 kts 234°
2026-04-28 11:47 18.38743 109.27070 6270 ft 254 kts 243°
2026-04-28 11:47 18.38133 109.24727 5852 ft 250 kts 263°
2026-04-28 11:48 18.37960 109.22903 5722 ft 252 kts 264°
2026-04-28 11:48 18.37777 109.21102 5661 ft 243 kts 263°
2026-04-28 11:48 18.37513 109.19389 5596 ft 231 kts 254°
2026-04-28 11:48 18.37110 109.18365 5556 ft 229 kts 237°
2026-04-28 11:49 18.35459 109.17026 5365 ft 229 kts 200°
2026-04-28 11:49 18.34426 109.16788 5161 ft 230 kts 187°
2026-04-28 11:49 18.32290 109.16911 4782 ft 231 kts 173°
2026-04-28 11:49 18.30706 109.17176 4500 ft 230 kts 172°
2026-04-28 11:50 18.29162 109.17591 4253 ft 228 kts 158°
2026-04-28 11:50 18.27907 109.18569 4054 ft 226 kts 124°
2026-04-28 11:50 18.27451 109.20138 3721 ft 232 kts 91°
2026-04-28 11:50 18.27554 109.21257 3481 ft 235 kts 80°
2026-04-28 11:51 18.27902 109.22938 3120 ft 237 kts 81°
2026-04-28 11:51 18.28220 109.25189 2728 ft 233 kts 85°
2026-04-28 11:51 18.28409 109.26869 2413 ft 231 kts 85°
2026-04-28 11:51 18.28629 109.28530 2111 ft 226 kts 84°
2026-04-28 11:52 18.28849 109.30106 1825 ft 209 kts 85°
2026-04-28 11:52 18.29031 109.31547 1574 ft 191 kts 86°
2026-04-28 11:52 18.29201 109.32874 1317 ft 176 kts 85°
2026-04-28 11:52 18.29365 109.34093 1110 ft 162 kts 85°
2026-04-28 11:53 18.29508 109.35208 926 ft 149 kts 85°
2026-04-28 11:53 18.29646 109.36287 710 ft 149 kts 84°
2026-04-28 11:53 18.29743 109.37006 585 ft 149 kts 84°
2026-04-28 11:53 18.29935 109.38461 334 ft 152 kts 82°
2026-04-28 11:54 18.30086 109.39558 136 ft 151 kts 82°
2026-04-28 11:54 18.30228 109.40597 84 ft 132 kts 83°
2026-04-28 11:54 18.30320 109.41303 84 ft 65 kts 82°
2026-04-28 11:54 18.30370 109.41632 84 ft 30 kts 69°
2026-04-28 11:55 18.30453 109.41775 84 ft 22 kts 54°
2026-04-28 11:55 18.30556 109.41814 84 ft 17 kts 304°
2026-04-28 11:55 18.30545 109.41699 84 ft 16 kts 261°
2026-04-28 11:55 18.30530 109.41586 84 ft 15 kts 262°
2026-04-28 11:56 18.30514 109.41472 83 ft 18 kts 262°
2026-04-28 11:56 18.30498 109.41346 83 ft 17 kts 262°
2026-04-28 11:56 18.30507 109.41263 83 ft 10 kts 327°
2026-04-28 11:56 18.30581 109.41249 83 ft 13 kts 352°
2026-04-28 11:57 18.30676 109.41235 84 ft 15 kts 352°
2026-04-28 11:57 18.30778 109.41206 84 ft 15 kts 314°
2026-04-28 11:57 18.30784 109.41105 84 ft 14 kts 261°
2026-04-28 11:57 18.30769 109.40999 84 ft 16 kts 262°
2026-04-28 11:58 18.30752 109.40873 84 ft 18 kts 262°
2026-04-28 11:58 18.30746 109.40789 84 ft 1 kts 327°
2026-04-28 11:58 18.30749 109.40786 84 ft 2 kts 300°
2026-04-28 11:58 18.30743 109.40742 84 ft 7 kts 276°
2026-04-28 11:59 18.30781 109.40716 84 ft 7 kts 348°
2026-04-28 11:59 18.30819 109.40710 84 ft 2 kts 351°
2026-04-28 11:59 18.30822 109.40710 84 ft 0 kts 351°
2026-04-28 11:59 18.30824 109.40709 84 ft 0 kts 351°
2026-04-28 12:00 18.30825 109.40709 84 ft 0 kts 351°